Location: Unspecified
(43.4680°N, 87.1740°E)
Time: 17:17:22
(UTC+00:00)

Cosmos 1959 Rocket - Pass Details

Date: 17 January 2020
Orbit: 947 x 997 km, 83.0° (Epoch: 19 February)

Event Time Altitude Azimuth Distance (km) Brightness Sun altitude
Rises 13:37:04 0° 190° (S) 3,659 7.7 -27.7°
Reaches altitude 10° 13:39:35 10° 192° (SSW) 2,708 7.0 -28.1°
Maximum altitude 13:45:46 77° 278° (W) 991 4.5 -29.2°
Enters shadow 13:49:11 29° 1° (N) 1,703 5.7 -29.9°
